This is the latest recevied weather packets stored in our database for station/object DO1TNP-13. If no packets are shown the sender has not sent any weather packets the latest 1 day(s).
| Time | Temp. | Humidity | Pressure | Rain* | Wind** | Luminosity | Snow |
|---|---|---|---|---|---|---|---|
| 1836274337 | 17.78° C | 10% | - | - | 0 m/s | - | - |
| 1778025332 | 11.67° C | 10% | - | - | 0.45 m/s, 0° | - | - |
| 1778023527 | 11.67° C | 10% | - | - | 0 m/s | - | - |
| 1778021722 | 11.67° C | 10% | - | - | 0 m/s | - | - |
| 1778019917 | 11.67° C | 10% | - | - | 0 m/s | - | - |
| 1778018111 | 11.67° C | 10% | - | - | 0 m/s | - | - |
| 1778016306 | 11.67° C | 10% | - | - | 1.34 m/s, 0° | - | - |
| 1778014501 | 11.67° C | 10% | - | - | 1.34 m/s, 0° | - | - |
| 1778012696 | 12.22° C | 10% | - | - | 0.45 m/s, 0° | - | - |
| 1778010891 | 12.22° C | 10% | - | - | 0 m/s | - | - |
| 1778009086 | 12.78° C | 10% | - | - | 2.24 m/s, 0° | - | - |
| 1778003670 | 13.33° C | 10% | - | - | 0.45 m/s, 0° | - | - |
| 1777996449 | 13.89° C | 10% | - | - | 0 m/s | - | - |
| 1777994643 | 13.89° C | 10% | - | - | 1.34 m/s, 0° | - | - |
| 1777992839 | 14.44° C | 10% | - | - | 0 m/s | - | - |
| 1777991033 | 13.89° C | 10% | - | - | 0 m/s | - | - |
| 1777989228 | 14.44° C | 10% | - | - | 0.45 m/s, 0° | - | - |
| 1777987422 | 15° C | 10% | - | - | 1.79 m/s, 0° | - | - |
| 1777985617 | 15° C | 10% | - | - | 1.34 m/s, 0° | - | - |
| 1777983812 | 15° C | 10% | - | - | 0.89 m/s, 0° | - | - |
| 1777982007 | 16.11° C | 10% | - | - | 0.45 m/s, 0° | - | - |
| 1777980202 | 16.67° C | 10% | - | - | 0.89 m/s, 0° | - | - |
| 1777978396 | 15.56° C | 10% | - | - | 0.89 m/s, 0° | - | - |
| 1777976591 | 16.11° C | 10% | - | - | 0.89 m/s, 0° | - | - |
| 1777974786 | 16.67° C | 10% | - | - | 0 m/s | - | - |
* Rain since midnight (hover to see other rain measurements)
** Current wind speed in m/s (hover to see current wind gust speed)